SCP
0 0 0 0 0 0 0 0 0 0 0 0 0 0 0 0 0 0 0 0 0 0 0 0 0 0 0 0 0 0 0 0 0 0 0 0 0 0 0 0 0 0 0
0 0 0 0 0 0 0 0 0 0 0 0 0 0 0 0 0 0 0 0 0 0 0 0 0 0 0 0 0 0 0 0 0 0 0 0 0 0 0 0 0 -0 -0
0 0 0 0 0 -0 0 0 0 -0 0 0 0 0 0 0 0 0 0 0 0 0 0 0 0 0 0 0 0 0 0 0 0 0 0 0 0 0 0 0 0 -0 -0
0 0 0 0 0 0 0 0 0 0 0 0 0 0 0 0 0 0 0 0 0 0 0 0 0 0 0 0 0 0 0 0 0 0 0 0 0 0 -0 -0 -0 -0 -0
0 0 0 0 0 0 0 0 -0 -0 0 0 0 0 0 0 0 0 0 0 0 0 0 0 0 0 0 0 0 0 0 0 0 0 0 -0 -0 -0 -0 -0 -0 -0 -0
0 0 0 0 0 0 0 0 0 0 0 0 0 0 0 0 -0 -0 0 0 0 0 0 0 0 0 0 0 0 0 0 0 -0 -0 -0 -0 -0 -0 -0 -0 -0 -0 -0
0 0 0 0 0 0 0 0 0 0 -0 -0 -0 0 -0 -0 -0 -0 -0 0 0 0 0 0 0 0 -0 0 0 0 0 0 0 0 -0 -0 -0 -0 -0 0 0 0 0
0 0 0 0 0 0 0 -0 -0 -0 -0 -0 -0 -0 -0 -0 -0 -0 0 -0 -0 -0 -0 -0 -0 -0 -0 0 0 0 0 0 -0 0 0 0 0 0 0 0 0 0 0
0 0 -0 0 0 0 -0 -0 0 -0 -0 -0 -0 -0 0 0 0 0 0 -0 0 0 0 0 0 -0 0 0 0 0 0 0 0 0 0 0 0 0 0 0 0 0 0
0 0 0 0 -0 -0 -0 -0 -0 -0 0 0 -0 0 0 0 0 0 0 0 0 0 0 0 0 0 0 0 0 0 0 0 0 0 0 0 0 0 0 0 0 0 0
0 0 0 -0 -0 -0 0 0 0 0 -0 0 0 0 0 0 0 0 0 0 0 0 0 0 0 -0 0 -0 0 0 0 0 0 0 0 0 0 0 0 0 0 0 0
-0 -0 -0 -0 -0 -0 0 -0 0 0 0 0 0 0 0 0 0 0 0 0 0 0 0 -0 0 -0 0 0 0 0 0 0 0 0 0 0 0 0 0 0 0 0 0
-0 -0 -0 -0 0 0 0 0 0 0 0 0 0 0 0 0 0 0 0 0 0 0 0 0 0 0 0 0 0 0 0 0 0 0 0 0 0 0 0 0 0 0 0
0 0 0 0 0 0 0 0 0 0 0 0 0 0 0 -0 -0 -0 0 0 0 0 0 0 0 0 0 0 0 0 0 0 0 0 0 0 0 0 0 0 0 0 0
0 0 0 0 0 0 0 0 0 0 0 0 -0 0 0 0 0 0 0 0 0 0 0 0 0 0 0 0 0 0 0 0 0 0 0 0 0 0 0 0 0 0 0
0 0 0 0 0 0 0 0 0 0 0 0 0 0 0 -0 0 0 0 0 0 0 0 0 0 0 0 0 0 0 0 0 0 0 0 0 0 0 0 0 0 0 0
0 0 0 0 0 0 0 0 0 0 0 0 0 0 0 0 0 0 0 0 0 0 0 0 0 0 0 0 0 0 0 0 0 0 0 0 0 0 0 0 0 0 0
0 0 0 0 0 0 0 0 0 0 0 0 0 0 0 0 0 0 0 0 0 0 0 0 0 0 0 0 0 0 0 0 0 0 0 0 0 0 0 0 0 0 0
0 0 0 0 0 0 0 0 0 0 0 0 0 0 0 0 0 0 0 0 0 0 0 0 0 0 0 0 0 0 0 0 0 0 0 0 0 0 0 0 0 0 0
0 0 0 0 0 0 0 0 0 0 0 0 0 0 0 0 0 0 0 0 0 0 0 0 0 0 0 0 0 0 0 0 0 0 0 0 0 0 0 0 0 0 0
0 0 0 0 0 0 0 0 0 0 0 0 0 0 0 0 0 0 0 0 0 0 0 0 0 0 0 0 0 0 0 0 0 0 0 0 0 0 0 0 0 0 0
0 0 0 0 0 0 0 0 0 0 0 0 0 0 0 0 0 0 0 0 0 0 0 0 0 0 0 0 0 0 0 0 0 0 0 0 0 0 0 0 0 0 0
0 0 0 0 0 0 0 0 0 0 0 0 0 0 0 0 0 0 0 0 0 0 0 0 0 0 0 0 0 0 0 0 0 0 0 0 0 0 0 0 0 0 0
0 0 0 0 0 0 0 0 0 0 0 0 0 0 0 0 0 0 0 0 0 0 0 0 0 0 0 0 0 0 0 0 0 0 0 0 0 0 0 0 0 0 0
0 0 0 0 0 0 0 0 0 0 0 0 0 0 0 0 0 0 0 0 0 0 0 0 0 0 0 0 0 0 0 0 0 0 0 0 0 0 0 0 0 0 0
0 0 0 0 0 0 0 0 0 0 0 0 0 0 0 0 0 0 0 0 0 0 0 0 0 0 0 0 0 0 0 0 0 0 0 0 0 0 0 0 0 0 0
Wind_Speed_500mb
10 14 20 29 36 46 54 59 69 67 68 72 70 67 63 59 55 50 47 40 28 31 30 26 27 27 22 18 14 11 9 10 11 17 26 36 42 49 55 60 67 72 75
31 31 44 54 57 61 76 85 85 90 84 83 78 71 67 59 54 49 48 45 42 40 37 30 30 26 22 21 18 18 18 21 26 31 35 41 48 58 65 72 75 77 82
52 58 67 77 82 85 90 92 91 89 88 79 74 71 70 67 62 57 53 49 43 39 36 31 30 28 24 24 20 18 19 24 31 36 44 49 56 64 72 76 81 84 86
67 76 80 82 87 88 89 95 94 89 85 84 84 81 73 67 59 53 48 44 39 35 32 29 27 24 25 26 28 31 33 36 39 42 48 57 66 71 78 88 95 91 95
77 85 90 89 88 86 86 89 89 86 85 81 76 72 67 63 57 46 41 40 38 34 32 32 32 33 30 34 38 42 43 44 46 49 57 66 72 78 82 86 90 95 98
81 81 77 78 82 82 83 82 79 77 73 69 67 64 60 57 47 43 42 42 39 35 34 34 37 39 40 41 42 44 48 49 48 52 61 69 74 75 80 82 88 94 90
78 76 75 74 72 69 69 71 71 68 62 61 59 54 55 52 42 39 36 36 37 38 38 40 43 44 50 51 50 52 53 53 50 55 63 65 73 72 76 80 82 85 94
71 70 66 65 66 63 62 62 61 57 55 55 51 47 43 42 36 36 34 36 37 38 41 44 46 49 51 54 55 58 60 59 53 58 62 69 69 68 65 68 76 86 98
61 60 58 56 56 55 55 56 56 53 52 47 44 40 37 36 32 33 31 34 33 34 35 36 42 49 56 63 63 65 65 64 64 67 64 59 57 57 57 67 74 89 109
53 51 48 48 47 47 48 47 47 44 43 39 36 36 33 31 28 24 26 24 28 32 39 45 49 55 63 61 60 62 66 70 73 76 72 66 60 60 59 65 77 91 102
45 44 43 41 38 38 38 39 38 37 33 30 29 27 25 24 24 27 27 30 31 32 36 43 52 63 59 61 65 67 67 71 77 79 79 74 70 68 70 74 80 90 101
38 37 36 35 34 33 29 32 29 25 21 22 21 20 21 21 21 23 28 34 39 42 49 57 62 62 65 69 72 72 70 72 76 78 76 75 77 78 82 85 88 95 100
30 28 27 26 26 25 21 21 18 18 16 16 16 15 14 17 25 33 38 42 46 51 53 57 59 65 72 72 69 70 72 72 73 76 79 82 85 90 95 101 105 112 120
19 19 21 18 17 17 15 14 13 11 9 12 16 20 24 31 35 42 45 50 55 59 59 63 67 70 72 72 71 70 71 71 72 75 81 84 89 95 102 107 119 126 129
18 16 14 12 10 9 8 7 7 9 12 15 19 24 29 33 38 40 42 47 54 60 63 65 68 74 78 79 78 77 75 72 72 74 81 88 93 101 108 115 123 129 119
15 10 8 6 5 3 3 5 9 14 22 28 32 35 38 40 42 46 50 52 53 58 63 69 71 75 78 80 81 82 77 74 72 77 83 90 100 109 118 124 129 121 120
19 15 12 8 5 2 1 6 13 18 23 27 31 33 36 41 45 49 51 53 56 59 63 66 70 74 77 78 80 81 83 77 77 81 88 96 105 114 122 131 130 122 122
25 21 17 12 10 8 5 8 12 17 24 29 34 38 41 42 45 47 51 53 54 57 64 71 75 77 78 79 80 82 82 80 82 87 94 102 109 119 129 131 124 125 127
27 23 20 18 17 15 12 11 14 19 24 29 34 37 40 42 45 47 50 54 58 59 66 73 78 79 78 79 80 81 82 83 86 93 100 108 117 123 131 124 127 132 128
32 31 29 26 25 24 23 21 22 24 28 33 39 42 45 46 46 49 53 56 60 64 70 77 81 81 79 78 79 80 81 84 90 96 105 114 121 126 124 126 131 127 123
39 38 36 37 35 32 31 31 32 32 34 38 41 46 50 54 58 60 60 60 64 66 72 79 83 82 78 78 78 78 81 87 93 101 112 120 125 124 120 131 134 129 121
49 48 48 46 42 44 41 42 42 41 41 44 46 48 52 56 60 62 62 60 63 66 71 79 83 81 77 77 76 77 81 89 96 106 118 123 122 118 130 137 138 135 129
59 58 58 57 55 54 55 53 51 49 49 50 51 55 56 59 62 64 64 62 66 69 72 79 82 80 76 75 74 76 83 92 100 109 119 122 115 127 135 140 137 119 118
68 68 68 67 65 65 65 63 61 58 56 56 53 59 62 63 65 68 66 64 68 71 74 79 81 79 77 75 76 78 84 93 102 113 113 106 124 135 134 124 124 129 127
76 76 76 75 75 74 73 72 69 65 62 61 58 66 65 66 68 68 66 64 69 73 75 80 79 76 76 76 77 79 84 92 100 107 102 113 123 117 121 128 128 132 133
82 83 83 82 82 81 82 81 76 70 65 62 62 72 71 69 69 66 65 64 69 72 77 80 77 74 74 76 78 82 88 96 106 102 102 117 113 125 130 131 134 135 132
Wind_Direction_500mb
85 122 134 129 143 145 141 136 131 128 128 126 122 120 117 113 113 114 109 110 113 104 95 88 91 93 93 85 72 55 29 4 337 314 307 310 314 314 313 311 309 312 314
106 120 115 115 121 124 123 121 120 120 120 117 116 115 112 109 106 104 106 101 99 99 93 93 87 77 69 61 46 25 9 354 342 331 318 314 315 319 321 320 322 322 321
115 118 116 113 116 116 117 118 118 116 111 111 110 107 103 101 100 100 101 100 98 94 87 77 71 60 51 41 24 8 354 343 338 335 330 329 325 324 322 323 323 324 324
116 116 115 111 109 109 111 110 107 105 105 105 103 102 101 99 98 96 93 88 86 83 80 73 64 53 37 25 10 2 355 348 342 339 334 331 331 331 330 331 328 330 329
113 111 109 108 109 110 109 107 109 108 106 104 103 101 98 93 87 86 88 87 83 76 64 52 42 32 19 15 9 4 357 348 343 338 336 336 336 335 334 331 328 330 327
109 107 106 110 114 110 107 107 108 105 103 103 100 99 97 94 92 85 76 70 65 60 52 41 31 21 17 14 5 359 354 351 344 340 339 336 334 335 333 333 330 329 327
109 110 111 110 109 109 109 107 105 104 106 103 98 96 90 83 79 76 71 66 58 49 41 33 25 16 7 3 1 355 351 347 343 339 336 338 333 334 330 327 325 321 317
111 112 113 115 113 110 107 103 103 103 98 95 94 90 89 85 75 64 55 49 42 35 28 22 16 10 7 357 355 347 344 340 341 339 336 337 332 328 321 318 318 317 313
110 113 112 110 109 108 104 105 101 96 92 90 91 91 86 79 65 53 40 35 28 24 20 13 8 5 1 356 349 344 339 333 336 336 334 330 321 317 316 316 321 321 320
115 115 113 109 106 104 101 100 96 90 88 88 85 74 64 54 44 36 25 20 18 11 9 5 1 359 359 352 345 342 336 336 333 330 328 324 319 317 318 320 324 323 325
118 114 111 108 106 103 99 93 85 79 73 67 57 54 45 32 18 13 1 5 6 1 360 359 358 358 352 348 344 339 335 325 324 324 322 321 321 321 322 324 325 323 321
123 121 119 113 102 90 79 76 73 69 61 55 47 37 24 12 5 354 356 2 3 4 359 356 355 351 345 343 339 334 327 323 322 320 320 323 324 325 324 324 323 321 321
119 115 108 100 96 92 84 79 71 64 48 36 28 21 11 1 359 359 359 360 358 358 354 350 346 343 342 338 332 328 324 322 321 322 325 326 327 326 325 327 326 327 326
134 126 116 111 104 97 83 70 59 48 40 33 22 14 9 3 356 356 357 354 352 350 348 343 340 337 331 327 327 327 328 327 326 326 325 325 325 326 325 329 329 330 325
164 152 131 117 105 93 82 66 54 44 37 27 16 9 4 357 355 356 351 350 346 340 338 334 331 330 329 328 328 329 331 330 327 325 324 325 325 325 327 329 329 329 322
168 158 162 164 157 127 80 39 31 23 19 11 4 1 358 352 347 344 342 341 338 335 333 331 329 328 329 328 328 330 333 330 327 325 324 325 326 327 328 329 330 326 320
191 197 206 203 197 209 301 5 13 7 4 357 353 349 345 340 340 337 335 334 332 332 329 327 328 329 329 329 330 331 331 329 326 326 326 327 327 326 328 328 329 325 319
214 210 208 218 227 243 287 338 349 348 345 340 337 335 335 333 330 328 328 328 326 326 328 330 332 331 330 328 329 330 328 327 327 327 327 326 326 328 328 327 326 322 318
226 227 225 232 242 257 275 295 310 318 320 320 321 323 323 325 324 324 326 327 327 328 329 330 332 331 329 328 329 328 326 327 327 326 326 326 328 329 327 328 325 323 317
233 236 240 243 251 261 268 277 290 303 310 313 313 316 317 320 319 321 324 328 329 329 330 330 331 329 327 327 327 326 325 325 326 326 326 326 328 328 327 326 323 315 310
242 246 250 251 255 262 268 278 284 292 299 302 304 308 314 321 324 326 326 326 327 326 327 328 329 327 327 327 326 325 324 324 325 326 326 326 327 327 328 326 322 316 308
244 247 250 256 259 261 268 272 277 285 289 293 298 304 308 315 319 321 321 320 321 322 325 327 327 325 326 326 324 322 322 323 326 327 326 326 326 327 330 327 320 316 310
247 249 252 254 257 260 263 268 273 279 283 289 296 302 305 308 313 318 318 317 319 321 325 327 325 324 325 324 322 321 320 323 325 325 325 326 328 332 331 323 319 312 311
249 251 254 257 258 260 264 267 270 274 278 284 290 299 302 304 308 314 316 316 318 320 324 326 325 323 324 323 322 321 321 323 324 324 326 328 332 331 324 314 310 310 310
254 254 256 258 260 262 265 266 268 271 276 281 285 293 297 300 304 310 314 314 315 318 322 325 324 324 323 322 323 323 323 324 324 327 336 334 323 319 313 312 313 313 312
258 259 260 261 262 264 265 266 268 271 275 280 281 288 295 298 303 308 311 311 314 317 322 324 325 324 323 323 324 325 327 329 328 335 338 329 320 318 319 317 316 315 313
Wind_Speed_850mb
10 14 20 29 36 46 54 59 69 67 68 72 70 67 63 59 55 50 47 40 28 31 30 26 27 27 22 18 14 11 9 10 11 17 26 36 42 49 55 60 67 72 75
31 31 44 54 57 61 76 85 85 90 84 83 78 71 67 59 54 49 48 45 42 40 37 30 30 26 22 21 18 18 18 21 26 31 35 41 48 58 65 72 75 77 82
52 58 67 77 82 85 90 92 91 89 88 79 74 71 70 67 62 57 53 49 43 39 36 31 30 28 24 24 20 18 19 24 31 36 44 49 56 64 72 76 81 84 86
67 76 80 82 87 88 89 95 94 89 85 84 84 81 73 67 59 53 48 44 39 35 32 29 27 24 25 26 28 31 33 36 39 42 48 57 66 71 78 88 95 91 95
77 85 90 89 88 86 86 89 89 86 85 81 76 72 67 63 57 46 41 40 38 34 32 32 32 33 30 34 38 42 43 44 46 49 57 66 72 78 82 86 90 95 98
81 81 77 78 82 82 83 82 79 77 73 69 67 64 60 57 47 43 42 42 39 35 34 34 37 39 40 41 42 44 48 49 48 52 61 69 74 75 80 82 88 94 90
78 76 75 74 72 69 69 71 71 68 62 61 59 54 55 52 42 39 36 36 37 38 38 40 43 44 50 51 50 52 53 53 50 55 63 65 73 72 76 80 82 85 94
71 70 66 65 66 63 62 62 61 57 55 55 51 47 43 42 36 36 34 36 37 38 41 44 46 49 51 54 55 58 60 59 53 58 62 69 69 68 65 68 76 86 98
61 60 58 56 56 55 55 56 56 53 52 47 44 40 37 36 32 33 31 34 33 34 35 36 42 49 56 63 63 65 65 64 64 67 64 59 57 57 57 67 74 89 109
53 51 48 48 47 47 48 47 47 44 43 39 36 36 33 31 28 24 26 24 28 32 39 45 49 55 63 61 60 62 66 70 73 76 72 66 60 60 59 65 77 91 102
45 44 43 41 38 38 38 39 38 37 33 30 29 27 25 24 24 27 27 30 31 32 36 43 52 63 59 61 65 67 67 71 77 79 79 74 70 68 70 74 80 90 101
38 37 36 35 34 33 29 32 29 25 21 22 21 20 21 21 21 23 28 34 39 42 49 57 62 62 65 69 72 72 70 72 76 78 76 75 77 78 82 85 88 95 100
30 28 27 26 26 25 21 21 18 18 16 16 16 15 14 17 25 33 38 42 46 51 53 57 59 65 72 72 69 70 72 72 73 76 79 82 85 90 95 101 105 112 120
19 19 21 18 17 17 15 14 13 11 9 12 16 20 24 31 35 42 45 50 55 59 59 63 67 70 72 72 71 70 71 71 72 75 81 84 89 95 102 107 119 126 129
18 16 14 12 10 9 8 7 7 9 12 15 19 24 29 33 38 40 42 47 54 60 63 65 68 74 78 79 78 77 75 72 72 74 81 88 93 101 108 115 123 129 119
15 10 8 6 5 3 3 5 9 14 22 28 32 35 38 40 42 46 50 52 53 58 63 69 71 75 78 80 81 82 77 74 72 77 83 90 100 109 118 124 129 121 120
19 15 12 8 5 2 1 6 13 18 23 27 31 33 36 41 45 49 51 53 56 59 63 66 70 74 77 78 80 81 83 77 77 81 88 96 105 114 122 131 130 122 122
25 21 17 12 10 8 5 8 12 17 24 29 34 38 41 42 45 47 51 53 54 57 64 71 75 77 78 79 80 82 82 80 82 87 94 102 109 119 129 131 124 125 127
27 23 20 18 17 15 12 11 14 19 24 29 34 37 40 42 45 47 50 54 58 59 66 73 78 79 78 79 80 81 82 83 86 93 100 108 117 123 131 124 127 132 128
32 31 29 26 25 24 23 21 22 24 28 33 39 42 45 46 46 49 53 56 60 64 70 77 81 81 79 78 79 80 81 84 90 96 105 114 121 126 124 126 131 127 123
39 38 36 37 35 32 31 31 32 32 34 38 41 46 50 54 58 60 60 60 64 66 72 79 83 82 78 78 78 78 81 87 93 101 112 120 125 124 120 131 134 129 121
49 48 48 46 42 44 41 42 42 41 41 44 46 48 52 56 60 62 62 60 63 66 71 79 83 81 77 77 76 77 81 89 96 106 118 123 122 118 130 137 138 135 129
59 58 58 57 55 54 55 53 51 49 49 50 51 55 56 59 62 64 64 62 66 69 72 79 82 80 76 75 74 76 83 92 100 109 119 122 115 127 135 140 137 119 118
68 68 68 67 65 65 65 63 61 58 56 56 53 59 62 63 65 68 66 64 68 71 74 79 81 79 77 75 76 78 84 93 102 113 113 106 124 135 134 124 124 129 127
76 76 76 75 75 74 73 72 69 65 62 61 58 66 65 66 68 68 66 64 69 73 75 80 79 76 76 76 77 79 84 92 100 107 102 113 123 117 121 128 128 132 133
82 83 83 82 82 81 82 81 76 70 65 62 62 72 71 69 69 66 65 64 69 72 77 80 77 74 74 76 78 82 88 96 106 102 102 117 113 125 130 131 134 135 132
Wind_Direction_850mb
85 122 134 129 143 145 141 136 131 128 128 126 122 120 117 113 113 114 109 110 113 104 95 88 91 93 93 85 72 55 29 4 337 314 307 310 314 314 313 311 309 312 314
106 120 115 115 121 124 123 121 120 120 120 117 116 115 112 109 106 104 106 101 99 99 93 93 87 77 69 61 46 25 9 354 342 331 318 314 315 319 321 320 322 322 321
115 118 116 113 116 116 117 118 118 116 111 111 110 107 103 101 100 100 101 100 98 94 87 77 71 60 51 41 24 8 354 343 338 335 330 329 325 324 322 323 323 324 324
116 116 115 111 109 109 111 110 107 105 105 105 103 102 101 99 98 96 93 88 86 83 80 73 64 53 37 25 10 2 355 348 342 339 334 331 331 331 330 331 328 330 329
113 111 109 108 109 110 109 107 109 108 106 104 103 101 98 93 87 86 88 87 83 76 64 52 42 32 19 15 9 4 357 348 343 338 336 336 336 335 334 331 328 330 327
109 107 106 110 114 110 107 107 108 105 103 103 100 99 97 94 92 85 76 70 65 60 52 41 31 21 17 14 5 359 354 351 344 340 339 336 334 335 333 333 330 329 327
109 110 111 110 109 109 109 107 105 104 106 103 98 96 90 83 79 76 71 66 58 49 41 33 25 16 7 3 1 355 351 347 343 339 336 338 333 334 330 327 325 321 317
111 112 113 115 113 110 107 103 103 103 98 95 94 90 89 85 75 64 55 49 42 35 28 22 16 10 7 357 355 347 344 340 341 339 336 337 332 328 321 318 318 317 313
110 113 112 110 109 108 104 105 101 96 92 90 91 91 86 79 65 53 40 35 28 24 20 13 8 5 1 356 349 344 339 333 336 336 334 330 321 317 316 316 321 321 320
115 115 113 109 106 104 101 100 96 90 88 88 85 74 64 54 44 36 25 20 18 11 9 5 1 359 359 352 345 342 336 336 333 330 328 324 319 317 318 320 324 323 325
118 114 111 108 106 103 99 93 85 79 73 67 57 54 45 32 18 13 1 5 6 1 360 359 358 358 352 348 344 339 335 325 324 324 322 321 321 321 322 324 325 323 321
123 121 119 113 102 90 79 76 73 69 61 55 47 37 24 12 5 354 356 2 3 4 359 356 355 351 345 343 339 334 327 323 322 320 320 323 324 325 324 324 323 321 321
119 115 108 100 96 92 84 79 71 64 48 36 28 21 11 1 359 359 359 360 358 358 354 350 346 343 342 338 332 328 324 322 321 322 325 326 327 326 325 327 326 327 326
134 126 116 111 104 97 83 70 59 48 40 33 22 14 9 3 356 356 357 354 352 350 348 343 340 337 331 327 327 327 328 327 326 326 325 325 325 326 325 329 329 330 325
164 152 131 117 105 93 82 66 54 44 37 27 16 9 4 357 355 356 351 350 346 340 338 334 331 330 329 328 328 329 331 330 327 325 324 325 325 325 327 329 329 329 322
168 158 162 164 157 127 80 39 31 23 19 11 4 1 358 352 347 344 342 341 338 335 333 331 329 328 329 328 328 330 333 330 327 325 324 325 326 327 328 329 330 326 320
191 197 206 203 197 209 301 5 13 7 4 357 353 349 345 340 340 337 335 334 332 332 329 327 328 329 329 329 330 331 331 329 326 326 326 327 327 326 328 328 329 325 319
214 210 208 218 227 243 287 338 349 348 345 340 337 335 335 333 330 328 328 328 326 326 328 330 332 331 330 328 329 330 328 327 327 327 327 326 326 328 328 327 326 322 318
226 227 225 232 242 257 275 295 310 318 320 320 321 323 323 325 324 324 326 327 327 328 329 330 332 331 329 328 329 328 326 327 327 326 326 326 328 329 327 328 325 323 317
233 236 240 243 251 261 268 277 290 303 310 313 313 316 317 320 319 321 324 328 329 329 330 330 331 329 327 327 327 326 325 325 326 326 326 326 328 328 327 326 323 315 310
242 246 250 251 255 262 268 278 284 292 299 302 304 308 314 321 324 326 326 326 327 326 327 328 329 327 327 327 326 325 324 324 325 326 326 326 327 327 328 326 322 316 308
244 247 250 256 259 261 268 272 277 285 289 293 298 304 308 315 319 321 321 320 321 322 325 327 327 325 326 326 324 322 322 323 326 327 326 326 326 327 330 327 320 316 310
247 249 252 254 257 260 263 268 273 279 283 289 296 302 305 308 313 318 318 317 319 321 325 327 325 324 325 324 322 321 320 323 325 325 325 326 328 332 331 323 319 312 311
249 251 254 257 258 260 264 267 270 274 278 284 290 299 302 304 308 314 316 316 318 320 324 326 325 323 324 323 322 321 321 323 324 324 326 328 332 331 324 314 310 310 310
254 254 256 258 260 262 265 266 268 271 276 281 285 293 297 300 304 310 314 314 315 318 322 325 324 324 323 322 323 323 323 324 324 327 336 334 323 319 313 312 313 313 312
258 259 260 261 262 264 265 266 268 271 275 280 281 288 295 298 303 308 311 311 314 317 322 324 325 324 323 323 324 325 327 329 328 335 338 329 320 318 319 317 316 315 313